| time (UTC) | temp F | wind direction | speed MPH | gust MPH | rain 1hr in | rain 24hr in | rain mn in | humidity % | barometer mb |
| 20260504210911 | 55 | 45 | 3.0 | 5.0 | 0.00 | 0.00 | 0.01 | 33 | 1013.2 |
| 20260504210341 | 55 | 225 | 5.0 | 9.0 | 0.00 | 0.00 | 0.01 | 34 | 1013.2 |
| 20260504205837 | 55 | 258 | 2.0 | 2.0 | 0.00 | 0.00 | 0.01 | 34 | 1013.5 |
| 20260504205342 | 55 | 83 | 4.0 | 6.0 | 0.00 | 0.00 | 0.01 | 34 | 1013.5 |
| 20260504204842 | 55 | 345 | 5.0 | 8.0 | 0.00 | 0.00 | 0.01 | 34 | 1013.5 |
| 20260504204341 | 55 | 270 | 5.0 | 9.0 | 0.00 | 0.00 | 0.01 | 34 | 1013.5 |
| 20260504203839 | 55 | 301 | 4.0 | 7.0 | 0.00 | 0.00 | 0.01 | 34 | 1013.5 |
| 20260504203340 | 55 | 348 | 2.0 | 2.0 | 0.00 | 0.00 | 0.01 | 34 | 1013.2 |
| 20260504202838 | 56 | 216 | 3.0 | 5.0 | 0.00 | 0.00 | 0.01 | 34 | 1013.5 |
| 20260504202337 | 56 | 254 | 4.0 | 7.0 | 0.00 | 0.00 | 0.01 | 33 | 1013.5 |
| 20260504201842 | 55 | 39 | 3.0 | 6.0 | 0.00 | 0.00 | 0.01 | 32 | 1013.5 |
| 20260504201336 | 55 | 316 | 5.0 | 7.0 | 0.00 | 0.00 | 0.01 | 32 | 1013.5 |
| 20260504200842 | 55 | 292 | 7.0 | 9.0 | 0.00 | 0.00 | 0.01 | 34 | 1013.5 |
| 20260504200342 | 55 | 214 | 3.0 | 5.0 | 0.00 | 0.00 | 0.01 | 34 | 1013.2 |
| 20260504195836 | 55 | 200 | 6.0 | 8.0 | 0.00 | 0.00 | 0.01 | 35 | 1013.5 |
| 20260504195337 | 55 | 148 | 0.0 | 1.0 | 0.00 | 0.00 | 0.01 | 35 | 1013.5 |
| 20260504194842 | 54 | 10 | 5.0 | 7.0 | 0.00 | 0.00 | 0.01 | 35 | 1013.5 |
| 20260504194339 | 54 | 312 | 6.0 | 10.0 | 0.00 | 0.00 | 0.01 | 36 | 1013.5 |
| 20260504193840 | 54 | 304 | 2.0 | 3.0 | 0.00 | 0.00 | 0.01 | 36 | 1013.5 |
| 20260504193341 | 54 | 74 | 4.0 | 6.0 | 0.00 | 0.00 | 0.01 | 36 | 1013.5 |
| 20260504192837 | 54 | 349 | 5.0 | 6.0 | 0.00 | 0.00 | 0.01 | 38 | 1013.5 |
| 20260504192339 | 54 | 6 | 4.0 | 6.0 | 0.00 | 0.00 | 0.01 | 35 | 1013.5 |
| 20260504191841 | 53 | 278 | 4.0 | 6.0 | 0.00 | 0.00 | 0.01 | 37 | 1013.5 |
| 20260504191340 | 53 | 317 | 10.0 | 13.0 | 0.00 | 0.00 | 0.01 | 36 | 1013.9 |
| 20260504190841 | 53 | 276 | 3.0 | 5.0 | 0.00 | 0.00 | 0.01 | 37 | 1013.5 |
| 20260504190337 | 53 | 120 | 3.0 | 6.0 | 0.00 | 0.00 | 0.01 | 36 | 1013.5 |
| 20260504185837 | 53 | 16 | 4.0 | 6.0 | 0.00 | 0.00 | 0.01 | 37 | 1013.5 |
| 20260504185340 | 52 | 294 | 5.0 | 8.0 | 0.00 | 0.00 | 0.01 | 37 | 1013.5 |
| 20260504184838 | 52 | 153 | 3.0 | 5.0 | 0.00 | 0.00 | 0.01 | 39 | 1013.5 |
| 20260504184338 | 52 | 273 | 8.0 | 10.0 | 0.00 | 0.00 | 0.01 | 38 | 1013.9 |
| 20260504183835 | 52 | 305 | 7.0 | 9.0 | 0.00 | 0.00 | 0.01 | 37 | 1013.5 |
| 20260504183339 | 52 | 86 | 6.0 | 8.0 | 0.00 | 0.00 | 0.01 | 40 | 1013.9 |
| 20260504182812 | 51 | 333 | 2.0 | 5.0 | 0.00 | 0.00 | 0.01 | 38 | 1013.5 |
| 20260504182315 | 51 | 28 | 1.0 | 2.0 | 0.00 | 0.00 | 0.01 | 38 | 1013.9 |
| 20260504181811 | 51 | 259 | 7.0 | 10.0 | 0.00 | 0.00 | 0.01 | 42 | 1013.9 |
| 20260504181313 | 51 | 269 | 10.0 | 14.0 | 0.00 | 0.00 | 0.01 | 42 | 1013.9 |
| 20260504180744 | 51 | 324 | 2.0 | 7.0 | 0.00 | 0.00 | 0.01 | 41 | 1014.2 |
| 20260504180235 | 50 | 255 | 4.0 | 7.0 | 0.00 | 0.00 | 0.01 | 44 | 1013.9 |
| 20260504175739 | 50 | 270 | 5.0 | 6.0 | 0.00 | 0.00 | 0.01 | 43 | 1013.9 |
| 20260504175237 | 50 | 348 | 6.0 | 8.0 | 0.00 | 0.00 | 0.01 | 42 | 1013.9 |
| 20260504174738 | 49 | 327 | 5.0 | 7.0 | 0.00 | 0.00 | 0.01 | 44 | 1014.2 |
| 20260504174238 | 49 | 251 | 7.0 | 11.0 | 0.00 | 0.00 | 0.01 | 45 | 1013.9 |
| 20260504173737 | 49 | 0 | 5.0 | 7.0 | 0.00 | 0.00 | 0.01 | 46 | 1013.9 |
| 20260504173238 | 49 | 248 | 4.0 | 8.0 | 0.00 | 0.00 | 0.01 | 46 | 1013.9 |
| 20260504172740 | 49 | 113 | 4.0 | 6.0 | 0.00 | 0.00 | 0.01 | 48 | 1014.2 |
| 20260504172227 | 49 | 296 | 5.0 | 9.0 | 0.00 | 0.00 | 0.01 | 49 | 1014.2 |
| 20260504171726 | 49 | 68 | 2.0 | 5.0 | 0.00 | 0.00 | 0.01 | 49 | 1014.2 |
| 20260504171227 | 49 | 0 | 5.0 | 7.0 | 0.00 | 0.00 | 0.01 | 48 | 1014.2 |
| 20260504170727 | 49 | 70 | 1.0 | 2.0 | 0.00 | 0.00 | 0.01 | 49 | 1014.2 |
| 20260504170227 | 49 | 109 | 5.0 | 6.0 | 0.00 | 0.00 | 0.01 | 49 | 1014.2 |
| 20260504160226 | 44 | 240 | 1.0 | 2.0 | 0.00 | 0.00 | 0.01 | 56 | 1014.2 |
| 20260504150728 | 42 | 265 | 0.0 | 1.0 | 0.00 | 0.00 | 0.01 | 61 | 1014.2 |
| 20260504150226 | 42 | 251 | 5.0 | 7.0 | 0.00 | 0.00 | 0.01 | 61 | 1013.9 |
| 20260504141223 | 42 | 202 | 0.0 | 0.0 | 0.00 | 0.00 | 0.01 | 60 | 1013.9 |
| 20260504140724 | 42 | 240 | 2.0 | 2.0 | 0.00 | 0.00 | 0.01 | 59 | 1013.5 |
| 20260504140223 | 42 | 251 | 1.0 | 2.0 | 0.00 | 0.00 | 0.01 | 60 | 1013.9 |
| 20260504130738 | 41 | 285 | 2.0 | 3.0 | 0.00 | 0.00 | 0.01 | 63 | 1013.2 |
| 20260504130243 | 41 | 233 | 1.0 | 1.0 | 0.00 | 0.00 | 0.01 | 65 | 1013.2 |
| 20260504120222 | 41 | 241 | 0.0 | 1.0 | 0.00 | 0.00 | 0.01 | 67 | 1013.2 |
| 20260504110719 | 43 | 269 | 0.0 | 2.0 | 0.00 | 0.00 | 0.01 | 65 | 1013.2 |
| 20260504110219 | 43 | 44 | 3.0 | 3.0 | 0.00 | 0.00 | 0.01 | 65 | 1013.2 |
| 20260504100218 | 45 | 218 | 0.0 | 0.0 | 0.00 | 0.00 | 0.01 | 81 | 1012.9 |
| 20260504081715 | 47 | 314 | 1.0 | 2.0 | 0.00 | 0.00 | 0.01 | 74 | 1012.9 |
| 20260504081216 | 47 | 324 | 1.0 | 2.0 | 0.00 | 0.00 | 0.01 | 75 | 1012.9 |
| 20260504080714 | 47 | 246 | 1.0 | 1.0 | 0.00 | 0.00 | 0.01 | 76 | 1012.9 |
| 20260504080215 | 46 | 243 | 0.0 | 0.0 | 0.00 | 0.00 | 0.01 | 75 | 1013.2 |
| 20260504070213 | 47 | 288 | 4.0 | 5.0 | 0.00 | 0.00 | 0.00 | 73 | 1013.5 |
| 20260504060214 | 51 | 17 | 7.0 | 11.0 | 0.00 | 0.00 | 0.00 | 61 | 1013.2 |
| 20260504050714 | 53 | 359 | 3.0 | 6.0 | 0.00 | 0.00 | 0.00 | 53 | 1012.9 |
| 20260504050211 | 53 | 359 | 3.0 | 6.0 | 0.00 | 0.00 | 0.00 | 53 | 1012.5 |
| 20260504045711 | 53 | 348 | 3.0 | 5.0 | 0.00 | 0.00 | 0.00 | 52 | 1012.5 |
| 20260504045143 | 53 | 22 | 5.0 | 8.0 | 0.00 | 0.00 | 0.00 | 52 | 1012.9 |
| 20260504044638 | 53 | 29 | 4.0 | 7.0 | 0.00 | 0.00 | 0.00 | 51 | 1012.9 |
| 20260504044135 | 54 | 326 | 1.0 | 2.0 | 0.00 | 0.00 | 0.00 | 51 | 1012.5 |
| 20260504043642 | 54 | 272 | 3.0 | 6.0 | 0.00 | 0.00 | 0.00 | 50 | 1012.2 |
| 20260504043140 | 54 | 69 | 4.0 | 6.0 | 0.00 | 0.00 | 0.00 | 49 | 1012.2 |
| 20260504042640 | 54 | 37 | 2.0 | 2.0 | 0.00 | 0.00 | 0.00 | 48 | 1012.2 |
| 20260504042138 | 54 | 64 | 2.0 | 3.0 | 0.00 | 0.00 | 0.00 | 47 | 1011.9 |
| 20260504041638 | 54 | 55 | 4.0 | 6.0 | 0.00 | 0.00 | 0.00 | 47 | 1012.2 |
| 20260504041140 | 55 | 140 | 1.0 | 2.0 | 0.00 | 0.00 | 0.00 | 46 | 1012.2 |
| 20260504040641 | 55 | 143 | 2.0 | 3.0 | 0.00 | 0.00 | 0.00 | 46 | 1011.9 |
| 20260504040138 | 55 | 43 | 3.0 | 3.0 | 0.00 | 0.00 | 0.00 | 46 | 1011.9 |
| 20260504035639 | 55 | 136 | 3.0 | 5.0 | 0.00 | 0.00 | 0.00 | 46 | 1011.9 |
| 20260504035137 | 55 | 69 | 3.0 | 3.0 | 0.00 | 0.00 | 0.00 | 46 | 1011.5 |
| 20260504034642 | 56 | 33 | 5.0 | 8.0 | 0.00 | 0.00 | 0.00 | 46 | 1011.5 |
| 20260504034136 | 56 | 358 | 3.0 | 3.0 | 0.00 | 0.00 | 0.00 | 45 | 1011.5 |
| 20260504033616 | 56 | 296 | 3.0 | 5.0 | 0.00 | 0.00 | 0.00 | 45 | 1011.5 |
| 20260504033113 | 57 | 129 | 3.0 | 3.0 | 0.00 | 0.00 | 0.00 | 45 | 1010.8 |
| 20260504032611 | 57 | 359 | 5.0 | 8.0 | 0.00 | 0.00 | 0.00 | 45 | 1010.8 |
| 20260504032110 | 57 | 7 | 1.0 | 2.0 | 0.00 | 0.00 | 0.00 | 45 | 1010.5 |
| 20260504031613 | 57 | 133 | 3.0 | 5.0 | 0.00 | 0.00 | 0.00 | 45 | 1010.2 |
| 20260504031139 | 57 | 281 | 6.0 | 11.0 | 0.00 | 0.00 | 0.00 | 44 | 1010.2 |
| 20260504030638 | 57 | 106 | 1.0 | 2.0 | 0.00 | 0.00 | 0.00 | 45 | 1010.2 |
| 20260504030138 | 58 | 103 | 4.0 | 7.0 | 0.00 | 0.00 | 0.00 | 44 | 1010.2 |
| 20260504025644 | 58 | 104 | 0.0 | 1.0 | 0.00 | 0.00 | 0.00 | 44 | 1010.2 |
| 20260504025137 | 58 | 49 | 3.0 | 7.0 | 0.00 | 0.00 | 0.00 | 44 | 1010.2 |
| 20260504024637 | 58 | 89 | 2.0 | 6.0 | 0.00 | 0.00 | 0.00 | 44 | 1009.8 |
| 20260504024142 | 58 | 16 | 5.0 | 7.0 | 0.00 | 0.00 | 0.00 | 44 | 1010.2 |
| 20260504023640 | 59 | 119 | 4.0 | 6.0 | 0.00 | 0.00 | 0.00 | 43 | 1009.8 |
| 20260504023139 | 59 | 110 | 3.0 | 3.0 | 0.00 | 0.00 | 0.00 | 44 | 1009.8 |
| 20260504022635 | 59 | 135 | 4.0 | 7.0 | 0.00 | 0.00 | 0.00 | 43 | 1009.5 |
| 20260504022137 | 59 | 89 | 3.0 | 6.0 | 0.00 | 0.00 | 0.00 | 43 | 1009.5 |
| 20260504021643 | 60 | 138 | 5.0 | 8.0 | 0.00 | 0.00 | 0.00 | 43 | 1009.8 |
| 20260504021140 | 60 | 309 | 3.0 | 3.0 | 0.00 | 0.00 | 0.00 | 43 | 1009.5 |
| 20260504020640 | 61 | 68 | 2.0 | 3.0 | 0.00 | 0.00 | 0.00 | 43 | 1009.5 |
| 20260504020118 | 61 | 132 | 4.0 | 8.0 | 0.00 | 0.00 | 0.00 | 42 | 1009.1 |
| 20260504015618 | 62 | 19 | 3.0 | 6.0 | 0.00 | 0.00 | 0.00 | 42 | 1009.1 |
| 20260504015117 | 63 | 160 | 1.0 | 1.0 | 0.00 | 0.00 | 0.00 | 42 | 1009.1 |
| 20260504014617 | 63 | 1 | 6.0 | 10.0 | 0.00 | 0.00 | 0.00 | 41 | 1008.8 |
| 20260504014116 | 63 | 138 | 8.0 | 9.0 | 0.00 | 0.00 | 0.00 | 42 | 1008.8 |
| 20260504013618 | 64 | 96 | 2.0 | 2.0 | 0.00 | 0.00 | 0.00 | 42 | 1008.8 |
| 20260504013119 | 64 | 80 | 1.0 | 2.0 | 0.00 | 0.00 | 0.00 | 41 | 1008.5 |
| 20260504012617 | 64 | 38 | 2.0 | 3.0 | 0.00 | 0.00 | 0.00 | 41 | 1008.5 |
| 20260504012117 | 64 | 168 | 2.0 | 3.0 | 0.00 | 0.00 | 0.00 | 41 | 1008.1 |
| 20260504011616 | 65 | 88 | 3.0 | 5.0 | 0.00 | 0.00 | 0.00 | 41 | 1008.8 |
| 20260504011116 | 65 | 112 | 3.0 | 3.0 | 0.00 | 0.00 | 0.00 | 41 | 1008.5 |
| 20260504010616 | 66 | 114 | 3.0 | 5.0 | 0.00 | 0.00 | 0.00 | 41 | 1008.5 |
| 20260504010116 | 66 | 139 | 4.0 | 7.0 | 0.00 | 0.00 | 0.00 | 40 | 1008.5 |
| 20260504005617 | 66 | 125 | 5.0 | 8.0 | 0.00 | 0.00 | 0.00 | 41 | 1008.1 |
| 20260504005115 | 66 | 252 | 1.0 | 2.0 | 0.00 | 0.00 | 0.00 | 40 | 1007.8 |
| 20260504004615 | 66 | 116 | 4.0 | 7.0 | 0.00 | 0.00 | 0.00 | 40 | 1007.8 |
| 20260504004117 | 66 | 91 | 2.0 | 3.0 | 0.00 | 0.00 | 0.00 | 40 | 1007.8 |
| 20260504003616 | 66 | 228 | 1.0 | 2.0 | 0.00 | 0.00 | 0.00 | 40 | 1007.8 |
| 20260504003116 | 67 | 339 | 2.0 | 3.0 | 0.00 | 0.00 | 0.00 | 40 | 1007.8 |
| 20260504002616 | 67 | 300 | 3.0 | 6.0 | 0.00 | 0.00 | 0.00 | 40 | 1007.8 |
| 20260504002115 | 67 | 266 | 1.0 | 2.0 | 0.00 | 0.00 | 0.00 | 40 | 1007.8 |
| 20260504001617 | 67 | 261 | 3.0 | 7.0 | 0.00 | 0.00 | 0.00 | 40 | 1007.5 |
| 20260504001115 | 67 | 188 | 4.0 | 5.0 | 0.00 | 0.00 | 0.00 | 40 | 1007.5 |
| 20260504000616 | 67 | 216 | 2.0 | 3.0 | 0.00 | 0.00 | 0.00 | 39 | 1007.8 |
| 20260504000115 | 68 | 352 | 5.0 | 7.0 | 0.00 | 0.00 | 0.00 | 39 | 1007.5 |
| 20260503235616 | 68 | 100 | 5.0 | 8.0 | 0.00 | 0.00 | 0.00 | 39 | 1007.5 |
| 20260503235114 | 68 | 107 | 5.0 | 8.0 | 0.00 | 0.00 | 0.00 | 39 | 1007.5 |
| 20260503234614 | 68 | 11 | 3.0 | 5.0 | 0.00 | 0.00 | 0.00 | 39 | 1007.5 |
| 20260503234114 | 68 | 5 | 3.0 | 6.0 | 0.00 | 0.00 | 0.00 | 39 | 1007.5 |
| 20260503233614 | 69 | 124 | 3.0 | 5.0 | 0.00 | 0.00 | 0.00 | 38 | 1007.5 |
| 20260503233114 | 69 | 71 | 6.0 | 8.0 | 0.00 | 0.00 | 0.00 | 38 | 1007.5 |
| 20260503232614 | 69 | 145 | 3.0 | 5.0 | 0.00 | 0.00 | 0.00 | 38 | 1007.5 |
| 20260503232113 | 69 | 146 | 4.0 | 8.0 | 0.00 | 0.00 | 0.00 | 37 | 1007.1 |
| 20260503231614 | 70 | 355 | 8.0 | 10.0 | 0.00 | 0.00 | 0.00 | 37 | 1007.5 |
| 20260503231113 | 70 | 213 | 3.0 | 7.0 | 0.00 | 0.00 | 0.00 | 37 | 1007.5 |
| 20260503230613 | 71 | 104 | 6.0 | 10.0 | 0.00 | 0.00 | 0.00 | 37 | 1007.1 |
| 20260503230113 | 72 | 236 | 3.0 | 5.0 | 0.00 | 0.00 | 0.00 | 37 | 1007.1 |
| 20260503225615 | 72 | 176 | 2.0 | 3.0 | 0.00 | 0.00 | 0.00 | 37 | 1007.1 |
| 20260503225112 | 73 | 139 | 4.0 | 8.0 | 0.00 | 0.00 | 0.00 | 37 | 1007.1 |
| 20260503224614 | 73 | 165 | 2.0 | 2.0 | 0.00 | 0.00 | 0.00 | 36 | 1007.1 |
| 20260503224115 | 73 | 136 | 5.0 | 9.0 | 0.00 | 0.00 | 0.00 | 33 | 1006.8 |
| 20260503223612 | 72 | 154 | 2.0 | 3.0 | 0.00 | 0.00 | 0.00 | 33 | 1007.1 |
| 20260503223112 | 72 | 205 | 0.0 | 1.0 | 0.00 | 0.00 | 0.00 | 34 | 1006.8 |
| 20260503222612 | 72 | 29 | 5.0 | 7.0 | 0.00 | 0.00 | 0.00 | 33 | 1007.1 |
| 20260503222111 | 72 | 0 | 3.0 | 5.0 | 0.00 | 0.00 | 0.00 | 33 | 1006.8 |
| 20260503221614 | 72 | 49 | 4.0 | 8.0 | 0.00 | 0.00 | 0.00 | 34 | 1006.8 |
| 20260503221112 | 72 | 342 | 1.0 | 2.0 | 0.00 | 0.00 | 0.00 | 33 | 1007.1 |
| 20260503220616 | 72 | 178 | 2.0 | 3.0 | 0.00 | 0.00 | 0.00 | 34 | 1007.1 |
| 20260503220111 | 72 | 85 | 5.0 | 5.0 | 0.00 | 0.00 | 0.00 | 34 | 1007.1 |
| 20260503215611 | 72 | 101 | 1.0 | 1.0 | 0.00 | 0.00 | 0.00 | 33 | 1007.1 |
| 20260503215110 | 72 | 93 | 3.0 | 5.0 | 0.00 | 0.00 | 0.00 | 34 | 1007.5 |
| 20260503214612 | 72 | 99 | 3.0 | 5.0 | 0.00 | 0.00 | 0.00 | 34 | 1007.1 |
| 20260503214110 | 72 | 44 | 5.0 | 9.0 | 0.00 | 0.00 | 0.00 | 34 | 1007.1 |
| 20260503213611 | 72 | 190 | 2.0 | 3.0 | 0.00 | 0.00 | 0.00 | 33 | 1007.1 |
| 20260503213113 | 72 | 227 | 2.0 | 2.0 | 0.00 | 0.00 | 0.00 | 33 | 1007.1 |
| 20260503212610 | 72 | 111 | 4.0 | 7.0 | 0.00 | 0.00 | 0.00 | 33 | 1007.1 |
| 20260503212113 | 72 | 169 | 2.0 | 3.0 | 0.00 | 0.00 | 0.00 | 34 | 1007.1 |
| 20260503211611 | 72 | 196 | 1.0 | 2.0 | 0.00 | 0.00 | 0.00 | 33 | 1007.1 |